Location: Elmsmere
(40.9284°N, 73.8207°W)
Time: 21:51:34
(UTC+00:00)

X-37B - Visible Passes

Search period start: 19 June 2021 00:00
Search period end: 29 June 2021 00:00
Orbit: 386 x 389 km, 45.0° (Epoch: 10 June)

Date Brightness Start Highest point End Pass type
(mag) Time Alt. Az. Time Alt. Az. Time Alt. Az.
19 Jun 2.4 06:01:26 32° NNE 06:01:26 32° NNE 06:03:37 10° ENE visible
19 Jun 1.6 07:34:30 10° WNW 07:37:35 46° NNE 07:40:40 10° E visible
20 Jun 2.0 06:37:56 27° NW 06:39:07 39° N 06:42:07 10° ENE visible
20 Jun 0.5 08:12:45 10° WNW 08:15:56 81° SSW 08:19:06 10° ESE visible
21 Jun 3.1 05:42:30 19° ENE 05:42:30 19° ENE 05:43:36 10° ENE visible
21 Jun 0.9 07:14:49 13° WNW 07:17:33 65° NNE 07:20:43 10° E visible
21 Jun 1.7 08:51:19 10° W 08:54:02 25° SW 08:56:43 10° SSE visible
22 Jun 2.6 01:27:29 10° S 01:28:32 13° SSE 01:28:32 13° SSE visible
22 Jun 2.2 06:20:14 31° ENE 06:20:14 31° ENE 06:22:12 10° E visible
22 Jun 0.8 07:52:44 10° WNW 07:55:47 46° SSW 07:58:49 10° SE visible
23 Jun 0.9 02:03:59 10° SW 02:07:01 43° SSE 02:08:47 21° E visible
23 Jun 3.2 03:40:33 10° W 03:41:15 15° W 03:41:15 15° W visible
23 Jun 2.7 06:59:41 18° ESE 06:59:41 18° ESE 07:00:38 10° ESE visible
23 Jun 2.4 08:32:12 11° WSW 08:33:43 14° SW 08:35:30 10° S visible
24 Jun 1.7 01:06:09 10° SSW 01:08:47 24° SE 01:11:25 10° E visible
24 Jun 0.9 02:42:04 10° WSW 02:45:14 68° NNW 02:47:13 20° ENE visible
24 Jun 3.5 04:19:10 10° WNW 04:19:34 13° WNW 04:19:34 13° WNW visible
25 Jun 0.5 01:43:41 10° WSW 01:46:51 77° SSE 01:50:02 10° ENE visible
25 Jun 1.9 03:20:38 10° WNW 03:23:40 39° N 03:24:24 33° NNE visible
26 Jun 1.6 02:22:06 10° W 02:25:12 48° NNW 02:28:17 10° ENE visible
26 Jun 2.6 03:59:10 10° WNW 04:01:00 27° NW 04:01:00 27° NW visible
27 Jun 1.0 01:23:36 10° WSW 01:26:46 67° NNW 01:29:56 10° ENE visible
27 Jun 2.1 03:00:42 10° WNW 03:03:41 37° N 03:05:06 23° NE visible
28 Jun 2.0 02:02:11 10° WNW 02:05:12 39° N 02:08:13 10° ENE visible
28 Jun 2.1 03:39:06 10° WNW 03:41:20 36° NW 03:41:20 36° NW visible
